Wind_Speed
25 24 20 19 19 19 18 17 18 17 17 16 15 14 12 10 8 7 5 3 1 1 2 3 5 6 7 8 10 10 11 11 12 13 13 13 13 12 12 11 11 10 10 9 8 8 9 9 8 8 8 10 11 10 9 8 10 10 9 11 13 13 13 12 12 13 12 11 10 9 10 11 13 15 16 18 19 21 22 23 23 23 23 21 21 22 22 20
26 22 19 20 21 20 19 18 18 17 15 14 12 11 9 7 5 3 2 0 2 3 5 6 7 8 9 10 11 12 11 10 10 10 10 9 9 9 9 8 8 8 7 7 6 6 8 8 8 7 8 10 11 11 10 9 10 10 10 12 12 12 12 11 12 13 13 13 13 13 14 16 18 20 21 23 24 25 25 25 25 24 22 21 21 21 21 21
27 24 20 20 20 20 18 17 15 14 12 10 9 7 5 4 2 0 1 3 5 6 7 7 8 8 9 9 10 10 8 6 6 6 5 6 7 7 7 6 5 5 4 5 5 5 6 8 6 5 7 8 10 10 10 10 10 10 11 12 13 12 12 12 12 13 14 15 16 17 19 21 23 25 26 27 28 29 29 27 25 24 22 21 21 21 22 22
24 23 20 18 18 17 15 14 12 10 8 7 6 4 2 1 1 3 4 6 6 6 6 6 6 6 6 7 8 8 5 3 3 3 3 4 5 5 5 4 3 3 4 5 5 5 6 7 6 5 4 5 7 8 7 8 8 8 10 11 12 12 12 12 13 14 16 17 19 21 23 25 26 28 29 30 31 31 30 28 26 24 23 23 22 22 23 23
21 20 19 17 15 13 12 10 8 7 5 4 3 1 1 2 4 5 6 5 4 4 3 3 3 3 4 5 5 5 4 3 2 3 3 3 4 5 6 6 6 6 6 6 7 7 7 8 8 6 5 4 6 5 4 5 7 9 11 11 12 13 13 13 14 15 17 20 22 24 26 26 28 29 30 30 31 30 28 27 26 25 24 23 23 23 24 24
19 18 16 14 12 10 9 7 6 4 3 2 2 2 4 5 5 5 4 2 1 1 1 1 2 2 3 4 4 4 3 3 3 4 4 4 6 7 8 8 8 8 8 8 8 8 8 9 8 8 7 6 7 6 5 6 9 11 12 13 15 16 16 16 16 17 19 22 24 25 26 26 27 29 29 30 29 28 27 26 26 25 24 24 23 23 23 23
16 14 13 11 10 8 6 5 3 2 2 3 4 5 5 6 4 3 1 1 1 1 1 2 2 3 4 4 3 4 3 3 4 6 6 7 7 9 9 8 8 8 8 8 8 8 9 9 9 10 9 8 9 8 8 9 11 12 14 15 17 17 18 18 19 21 23 25 25 26 26 26 27 28 29 29 28 29 28 27 26 26 24 24 24 23 23 23
13 12 10 8 6 4 3 2 2 3 4 5 6 6 5 3 2 1 2 1 1 2 3 3 3 4 4 3 3 4 4 4 6 8 8 8 8 9 9 8 7 7 7 8 8 8 9 9 8 9 10 10 10 10 11 11 12 13 14 15 16 17 18 20 22 25 27 27 26 26 27 27 27 28 29 27 27 27 27 26 26 26 25 25 24 24 24 24
10 9 7 5 3 2 2 3 3 4 5 5 5 4 2 2 3 2 1 1 2 3 3 3 3 4 4 4 4 5 5 5 7 7 8 8 9 9 8 8 7 7 8 8 8 8 8 9 8 9 9 10 11 12 12 12 13 14 14 15 16 18 21 23 25 27 27 27 27 27 26 26 26 28 27 24 23 25 25 26 25 25 25 25 25 25 25 25
7 5 4 2 1 1 1 2 2 2 2 1 1 2 4 4 3 1 0 1 2 3 3 2 3 4 4 4 5 6 6 6 6 7 8 8 8 8 8 8 8 7 8 8 8 8 8 8 9 9 9 11 11 12 13 13 14 15 16 18 20 21 23 25 25 25 25 25 25 25 24 24 24 26 24 21 22 24 25 26 25 24 23 23 24 24 24 24
5 4 3 2 2 2 3 3 2 2 2 3 4 6 6 4 2 2 2 2 2 2 2 2 3 3 4 5 6 6 6 6 7 7 8 8 8 8 8 8 8 8 8 8 8 7 7 8 8 9 9 10 11 11 13 14 16 17 18 19 21 21 22 22 21 21 21 21 21 22 22 22 22 24 23 22 22 23 24 25 24 23 22 22 22 22 23 23
4 4 4 5 5 5 5 5 4 4 5 7 7 6 5 2 2 3 3 2 2 2 2 2 2 3 4 5 5 6 6 7 8 8 8 9 9 9 9 8 8 8 8 8 8 7 7 7 7 8 9 9 10 10 11 13 14 15 17 18 19 18 17 18 17 16 16 17 18 21 23 22 21 23 23 22 23 24 25 25 24 24 23 23 23 23 23 23
6 6 6 6 6 6 6 6 6 6 7 7 6 4 2 1 3 3 3 1 1 1 1 1 2 4 5 5 4 6 7 8 8 8 8 8 8 7 7 7 7 7 8 8 8 7 7 6 7 8 9 9 10 10 11 12 13 14 16 16 16 15 14 15 15 15 15 16 18 20 26 25 21 23 23 23 25 26 25 24 24 25 25 25 25 25 26 26
6 7 7 7 6 5 5 4 5 5 5 4 3 2 0 2 3 3 3 2 1 1 2 2 3 5 4 3 4 6 7 7 7 6 6 6 7 7 6 7 7 7 8 8 8 7 6 7 7 7 8 8 9 9 10 12 12 13 15 14 13 14 14 14 15 16 16 18 20 21 27 28 24 24 24 24 26 26 25 24 23 24 24 25 25 26 26 26
7 7 6 6 5 4 3 2 2 3 2 2 1 0 1 2 2 2 2 2 2 2 2 3 4 5 3 2 5 7 7 7 7 7 6 7 7 8 8 8 8 8 8 7 8 8 7 7 7 7 7 7 7 7 7 9 11 12 12 11 12 14 15 15 16 18 18 20 24 23 26 29 24 22 23 24 25 24 23 23 23 23 22 23 23 24 24 24
6 6 5 4 4 4 3 3 2 2 1 1 1 1 2 2 2 2 2 2 2 2 2 3 4 3 1 3 7 7 8 8 9 8 7 8 8 9 9 9 9 8 7 7 7 7 7 8 6 6 6 5 6 6 7 8 9 10 11 12 13 14 16 16 16 20 22 24 26 25 26 28 22 20 21 22 23 24 23 22 21 21 21 21 21 21 20 20
5 5 5 5 5 5 5 4 3 3 2 2 2 2 2 2 2 2 2 2 2 1 2 4 5 2 1 5 9 8 9 9 9 8 7 8 9 9 9 9 9 8 7 7 6 6 8 8 6 5 5 5 6 8 9 9 9 9 11 13 14 15 17 18 19 20 22 24 24 24 25 25 21 19 18 18 22 24 21 18 17 18 18 18 17 16 16 16
5 5 5 6 6 6 6 5 4 4 3 3 3 2 2 2 3 3 3 3 3 3 3 5 7 4 3 7 9 8 9 9 8 8 8 9 9 8 8 8 9 7 6 6 5 5 7 6 5 5 7 8 8 9 9 9 10 10 11 13 15 16 17 18 18 18 19 21 21 22 24 24 22 18 14 17 23 21 17 15 15 15 16 15 15 13 13 13
4 5 6 6 7 7 7 6 5 4 4 3 3 3 2 2 3 3 3 4 4 5 5 6 7 6 6 8 8 8 8 8 8 9 9 9 7 7 8 8 8 7 6 5 4 4 5 6 6 7 8 9 9 9 8 9 10 10 12 13 15 17 15 14 16 18 18 19 20 22 25 26 25 21 17 19 20 16 15 15 14 14 15 15 14 13 12 12
2 3 5 6 8 8 8 7 5 5 3 3 3 3 2 2 2 3 3 3 4 5 6 7 7 7 7 8 8 8 8 8 9 8 8 7 8 8 9 9 8 6 6 6 6 7 6 7 7 8 9 9 9 9 9 10 11 11 13 13 14 15 14 13 15 17 17 20 23 23 26 29 29 24 18 16 15 13 14 15 15 15 16 15 13 12 12 11
2 2 4 6 8 9 8 6 5 4 3 2 2 2 2 2 1 1 2 3 3 5 7 7 7 7 8 8 9 9 8 8 8 8 8 9 9 9 9 9 8 7 8 8 8 7 6 7 8 8 9 9 10 10 10 10 11 13 12 12 12 11 15 14 12 15 19 24 26 25 29 30 26 20 15 13 13 13 14 16 18 17 16 15 13 12 11 11
2 2 3 6 8 9 7 5 4 3 2 2 2 2 2 2 1 2 2 4 5 6 7 7 7 7 8 8 8 7 7 8 9 9 10 9 9 9 9 10 9 9 9 9 9 8 7 8 9 9 9 9 9 10 9 9 11 12 11 12 12 12 16 15 13 18 21 25 27 27 31 28 22 20 17 15 14 12 15 19 18 17 16 15 13 11 11 11
1 2 3 5 7 7 6 4 3 3 2 2 2 1 1 1 2 2 3 5 5 6 7 8 8 8 8 8 7 7 8 9 9 10 10 9 9 9 10 10 9 10 9 8 9 9 8 8 9 9 9 9 9 8 9 10 11 11 11 12 13 15 17 17 20 22 21 24 25 25 28 24 23 22 17 14 15 15 16 18 17 15 14 14 14 13 12 12
1 2 2 4 5 6 4 4 3 3 2 2 2 1 1 1 2 3 4 5 5 7 8 8 8 8 8 8 8 7 9 9 9 10 10 9 10 10 10 10 9 10 10 8 9 9 8 7 8 9 9 9 9 8 8 9 9 9 11 13 15 16 16 19 23 23 23 22 20 24 24 22 25 20 16 14 15 17 17 16 15 14 14 14 14 14 14 14
1 1 1 2 4 4 4 3 3 3 3 3 3 2 1 1 2 3 4 4 5 7 7 7 7 8 8 7 8 7 8 9 9 10 10 10 10 10 10 10 9 10 10 9 8 8 9 8 8 9 10 9 8 8 9 10 11 10 11 14 16 17 18 20 21 22 23 19 19 23 16 17 25 19 17 21 18 18 17 15 17 15 15 16 16 15 15 17
1 1 1 0 2 4 4 3 3 3 3 3 3 2 1 2 2 3 4 3 4 6 7 6 6 7 8 7 8 7 6 8 9 9 10 10 10 10 10 10 9 10 11 10 8 7 8 9 8 8 10 11 9 10 11 13 15 13 14 16 16 18 19 20 20 19 19 18 19 18 7 11 25 21 19 24 21 19 17 16 18 15 14 16 17 16 16 20
0 0 1 1 1 3 3 3 3 3 4 3 3 2 1 2 2 3 2 2 3 4 6 6 5 7 7 7 8 8 6 7 9 9 10 10 9 9 10 10 9 10 11 11 9 7 8 9 9 8 10 11 10 10 12 14 15 14 15 16 17 19 19 19 19 17 17 19 17 13 7 10 18 22 23 23 22 21 19 16 17 16 15 16 16 17 19 22
1 1 2 2 3 3 3 3 3 3 4 3 2 1 1 1 3 2 2 2 1 2 4 5 5 6 7 7 8 8 8 8 8 8 8 9 9 9 9 10 9 9 10 10 9 8 8 9 9 9 9 11 10 11 13 15 14 15 16 18 18 19 20 19 18 15 16 17 11 9 8 6 14 23 26 23 23 24 21 17 15 16 17 17 17 18 20 21
1 1 2 3 4 3 4 4 3 3 3 2 1 1 1 1 2 2 2 2 1 1 3 5 5 5 6 7 7 7 7 7 8 7 7 8 9 9 8 10 9 8 10 10 9 9 8 8 8 8 9 10 10 11 14 15 15 16 17 18 19 19 18 16 15 13 11 10 7 7 7 3 14 25 26 23 26 25 22 19 15 15 17 18 18 18 18 19
2 2 3 4 4 3 4 4 4 3 2 2 1 1 1 1 1 2 2 0 2 2 2 4 5 5 5 6 6 6 6 7 7 7 7 8 8 9 8 9 9 8 10 10 9 10 9 8 7 8 9 9 10 12 14 15 16 18 18 20 20 18 16 13 12 9 4 5 4 4 6 2 8 22 26 24 26 25 23 20 17 15 16 17 18 18 18 19
2 2 3 4 4 4 5 4 4 3 2 1 1 1 1 1 1 1 1 2 3 2 2 3 4 4 4 5 5 5 5 6 7 7 7 7 8 9 8 9 9 8 9 11 10 10 9 8 6 9 11 10 10 12 14 15 17 18 19 21 19 13 11 10 7 3 1 4 3 3 5 3 8 18 27 25 24 23 20 20 19 16 15 17 17 18 18 18
2 3 3 4 4 4 5 5 4 3 2 1 1 2 3 3 0 0 3 4 2 2 3 3 4 4 4 4 4 4 4 5 6 6 6 6 7 8 8 9 11 9 9 12 12 11 10 9 7 10 13 10 9 13 14 15 16 18 21 20 13 7 5 4 3 2 3 5 4 3 3 7 17 20 26 27 23 18 16 20 21 17 15 16 17 18 17 17
3 3 3 4 4 4 5 4 3 2 1 2 2 3 4 3 1 1 4 3 1 3 4 3 3 3 3 3 4 4 4 5 5 5 6 6 5 7 8 9 11 10 10 14 15 14 13 10 9 12 14 11 11 15 15 14 16 19 20 16 8 3 3 3 4 3 5 5 5 7 5 10 18 19 26 26 19 15 16 22 22 17 15 15 16 17 17 18
3 3 4 4 5 5 5 4 3 3 2 2 3 4 5 3 2 3 4 2 2 4 4 3 2 2 2 2 3 4 4 4 6 5 6 6 5 7 9 9 10 10 11 13 14 15 13 8 9 14 15 13 14 14 14 15 17 18 17 12 8 4 2 4 4 3 6 7 7 10 7 8 13 18 28 21 13 15 20 23 21 16 14 15 14 16 18 21
4 4 4 5 5 5 4 4 3 3 3 3 4 6 5 3 4 5 4 2 3 4 3 3 2 1 1 1 2 3 3 4 6 6 6 7 7 7 9 11 11 10 11 12 12 12 12 11 14 17 17 15 15 14 14 16 14 13 14 13 12 10 7 8 9 11 11 9 8 10 11 15 20 24 24 12 10 19 24 25 23 15 13 13 13 16 20 24
5 5 5 5 6 5 4 4 4 4 4 4 5 7 6 4 4 5 4 3 4 4 3 3 2 1 0 1 2 3 3 4 6 7 7 8 7 6 10 13 12 10 11 13 12 8 10 15 19 20 17 16 15 15 17 17 13 13 15 15 14 13 12 12 12 12 9 6 7 9 14 22 23 20 15 9 13 24 28 27 20 9 8 12 16 20 24 28
6 6 6 6 6 6 5 5 5 4 4 5 6 6 7 6 5 5 4 4 4 3 3 3 2 1 1 2 2 3 4 5 6 8 9 9 7 7 11 14 12 11 12 14 13 10 12 17 21 20 16 17 19 20 21 20 17 16 17 16 14 12 11 8 6 6 3 2 6 10 16 20 16 14 18 17 18 28 29 19 8 5 12 20 24 25 27 29
7 7 7 7 6 6 6 6 6 5 5 6 6 6 6 7 6 6 6 5 4 3 3 3 2 2 2 2 3 3 5 6 7 9 11 10 8 9 13 14 12 12 15 16 15 14 14 16 20 19 15 18 22 23 22 20 18 17 17 17 15 11 9 7 4 3 3 2 5 10 17 18 18 19 19 17 20 26 21 9 7 13 22 28 29 29 31 33
8 8 7 7 7 7 7 6 6 5 6 7 6 6 6 6 7 7 7 5 5 4 4 3 2 3 3 3 4 5 6 8 9 11 11 9 9 12 14 13 12 14 17 18 17 16 15 12 15 19 20 21 23 22 21 20 18 18 19 19 17 14 13 11 8 5 3 2 3 10 15 13 13 16 14 16 24 22 11 8 13 23 31 34 36 37 38 37
8 8 8 7 7 7 7 7 6 6 7 7 6 7 7 7 7 7 7 6 6 5 5 4 3 4 4 5 6 7 8 9 10 11 12 11 11 13 13 12 14 17 18 19 18 18 17 13 15 22 25 24 23 21 22 25 23 22 22 21 19 16 15 14 14 14 10 4 1 3 8 11 17 24 26 29 29 18 10 11 20 30 38 42 43 42 40 38
8 8 8 7 7 7 7 7 6 7 7 7 7 8 8 8 8 8 8 7 7 6 5 5 6 6 7 7 7 8 11 12 12 12 12 12 12 12 12 14 17 19 18 20 20 18 17 16 20 27 29 27 26 24 24 26 23 21 21 20 19 17 15 10 10 14 15 10 8 5 8 24 37 38 36 35 27 17 13 16 29 39 45 46 44 40 38 38
8 8 8 8 8 8 8 7 7 7 7 7 8 8 8 9 9 8 9 8 8 7 7 7 8 8 8 9 9 9 12 15 15 13 12 14 15 14 15 17 19 19 20 21 20 18 18 18 24 30 31 29 26 23 20 17 16 16 16 17 18 17 17 12 7 11 14 15 17 11 10 31 47 39 32 30 21 17 18 28 41 47 48 45 40 38 37 37
8 8 8 8 8 8 8 8 8 8 8 8 9 9 9 10 10 9 9 9 9 9 8 9 9 9 10 10 11 11 12 15 16 15 14 16 17 17 17 19 19 19 20 20 20 20 18 16 22 30 34 32 27 22 17 14 14 15 15 16 17 17 18 16 16 19 20 22 22 9 7 32 46 32 22 20 17 20 31 43 49 48 45 41 38 37 37 37
8 8 8 8 8 8 8 8 7 8 8 9 9 10 10 10 10 10 10 10 9 9 9 10 10 11 12 12 13 13 12 12 15 17 17 18 19 19 19 19 19 19 20 21 22 22 18 16 20 23 24 24 23 19 17 19 20 20 20 19 19 20 18 17 21 20 20 28 26 7 9 35 43 28 22 24 28 38 45 48 48 45 42 40 39 41 41 41
8 8 8 8 8 7 8 8 7 7 8 9 10 10 10 10 10 10 10 10 11 10 10 11 11 12 13 13 14 14 13 14 16 18 19 19 20 20 19 19 20 21 22 22 23 24 23 22 22 16 9 9 13 15 20 27 28 27 29 27 26 27 24 24 24 17 16 27 28 15 21 41 45 36 36 39 41 45 46 45 45 42 41 43 45 45 44 43
8 7 7 7 7 7 8 8 8 8 7 9 10 10 10 10 10 11 11 11 11 11 12 12 12 13 13 13 15 15 15 16 17 19 20 20 21 21 21 22 22 23 23 23 23 24 25 27 27 23 20 19 22 24 26 28 30 31 32 30 28 27 27 27 25 23 24 28 31 33 37 44 44 40 41 43 43 44 44 42 42 43 45 47 46 45 44 45
8 7 7 7 6 6 8 8 8 8 8 9 9 9 10 10 10 11 11 11 11 11 12 12 12 13 13 14 16 17 16 17 18 21 22 21 22 23 24 25 25 25 25 24 23 21 25 30 30 29 29 29 29 30 28 27 30 32 30 28 28 24 24 26 25 29 29 23 26 37 40 39 40 40 40 40 40 40 41 41 42 44 45 45 45 46 47 48
7 7 8 7 7 6 6 8 9 9 9 10 10 9 9 9 9 10 11 12 12 11 13 13 12 13 15 16 17 18 18 18 20 21 22 22 23 24 25 26 26 26 25 23 23 22 24 29 30 30 32 31 29 31 29 27 27 27 26 29 32 29 26 28 29 31 29 25 29 37 38 37 38 36 34 35 34 36 40 41 42 42 43 45 48 50 52 54
7 7 8 8 8 8 7 7 8 9 9 10 11 10 9 9 9 10 10 11 12 12 13 14 14 15 16 17 18 19 18 18 20 22 23 24 24 25 26 26 25 25 25 24 24 24 23 26 29 30 31 32 30 29 28 25 24 27 31 33 32 27 24 25 25 23 23 27 31 32 32 34 32 28 30 34 35 38 40 40 41 43 46 51 53 54 56 57
7 8 8 8 8 9 9 8 8 8 9 10 11 10 10 10 10 10 11 12 13 13 13 14 15 16 18 19 21 20 18 19 22 23 24 25 26 26 26 27 26 26 27 26 26 24 22 24 27 28 31 33 29 26 25 23 25 32 36 28 20 19 21 22 22 21 21 26 29 27 29 31 28 29 35 38 40 41 41 41 44 47 52 55 57 58 58 57
9 9 9 9 9 9 10 9 9 9 9 10 10 10 9 9 9 10 11 12 13 13 14 15 16 18 19 20 21 20 19 22 23 24 25 26 27 27 27 28 28 28 27 26 26 25 23 24 26 25 28 31 28 25 26 26 30 33 26 15 15 21 26 28 25 22 21 25 28 27 27 29 32 36 41 42 43 42 43 45 49 53 57 59 59 58 56 55
11 10 9 10 10 9 9 9 9 9 9 9 9 9 9 9 9 11 12 12 13 14 15 16 18 19 20 20 21 21 22 24 25 25 25 26 27 28 27 27 26 25 25 23 23 24 23 24 25 22 22 28 28 25 28 30 28 21 12 12 23 30 31 31 28 24 22 22 24 25 28 32 36 39 41 42 43 44 47 51 54 57 59 59 57 55 53 53
Wind_Direction
134 126 121 124 123 124 126 125 125 124 123 123 123 123 125 126 126 126 125 127 122 303 295 288 282 280 279 280 282 282 281 283 288 288 288 289 290 290 289 289 288 285 285 287 285 280 278 276 274 274 270 266 264 261 259 256 255 259 258 256 264 273 275 276 277 279 278 277 281 272 254 248 251 259 269 278 285 290 293 297 299 299 297 292 285 282 279 276
133 124 120 122 121 122 121 122 123 122 123 123 124 125 126 125 121 118 114 291 291 287 282 280 279 278 279 280 282 283 285 290 290 288 287 290 294 295 294 292 287 283 286 291 289 282 277 277 273 268 259 254 257 256 255 254 254 261 265 266 272 277 279 276 272 274 278 279 278 274 270 271 273 276 280 283 287 290 293 296 298 298 295 290 284 280 277 274
127 116 114 117 117 119 121 123 124 123 124 123 124 124 121 119 112 77 299 291 285 280 278 277 278 281 281 283 286 289 294 295 287 283 281 287 294 297 299 295 288 289 297 303 298 291 282 280 278 262 250 247 250 253 253 256 259 263 268 277 284 283 281 277 273 274 276 278 281 283 282 283 286 287 287 288 289 289 291 295 296 294 291 286 280 277 274 273
118 112 115 118 118 122 124 124 123 123 123 123 127 128 129 126 301 296 289 284 280 276 274 275 279 282 283 287 291 298 309 298 274 284 287 290 300 308 311 304 300 305 309 309 299 291 283 281 282 270 252 244 252 259 259 263 267 262 269 286 295 293 286 280 278 275 274 276 282 286 287 288 289 289 288 289 288 287 290 292 291 289 285 281 277 274 272 271
122 120 124 125 124 126 126 124 126 130 134 139 142 163 241 284 291 291 287 280 274 270 268 271 278 280 285 292 298 315 324 304 289 301 304 305 317 326 320 311 308 308 307 304 296 290 282 279 283 278 264 244 252 268 269 269 269 264 271 286 294 295 290 285 282 278 278 280 283 285 287 288 288 288 288 287 286 287 288 288 288 286 284 280 277 274 272 271
128 128 129 129 129 131 133 136 143 151 162 184 222 260 280 289 293 294 286 272 252 199 182 247 273 279 287 299 315 334 322 295 311 321 316 311 320 329 323 313 304 301 302 302 301 296 283 278 278 273 267 247 245 251 240 243 254 263 273 281 286 288 285 284 284 284 286 287 287 286 286 288 288 289 288 287 288 289 289 288 287 286 283 280 277 275 273 271
129 130 130 133 137 142 147 152 168 198 231 255 269 274 281 287 292 285 229 155 143 168 202 238 267 273 289 317 336 337 309 279 307 318 307 300 312 325 324 317 307 302 305 306 305 298 286 280 273 270 267 251 244 238 231 241 251 260 267 272 275 277 276 277 280 284 287 289 288 286 286 287 286 286 285 286 289 291 290 289 287 285 282 279 276 274 273 271
131 132 134 137 143 151 163 201 241 258 266 269 273 275 276 275 252 176 151 139 181 210 224 242 267 274 292 319 328 327 310 283 300 310 302 302 315 321 322 322 320 318 315 312 306 299 292 285 274 270 270 260 254 246 241 250 258 264 267 268 269 269 270 272 276 281 285 288 287 287 288 287 286 284 284 287 290 290 289 287 284 282 280 278 276 274 271 270
134 133 135 138 146 178 239 264 266 270 272 270 270 267 247 176 147 138 137 197 222 227 232 250 272 279 292 304 312 318 316 306 307 310 309 314 320 320 322 323 327 328 317 309 303 296 289 281 272 267 267 264 262 259 257 259 263 268 269 267 266 266 269 273 277 282 285 287 287 288 288 288 288 287 288 293 291 288 286 285 284 282 281 279 277 276 274 273
132 129 132 137 152 233 288 299 300 294 291 274 230 169 145 134 122 99 22 272 248 237 242 260 274 281 285 299 316 317 317 318 316 317 318 321 323 326 329 327 329 323 309 305 300 290 282 277 273 269 266 267 267 267 268 266 265 269 268 268 269 269 273 276 279 283 285 287 287 288 288 289 289 289 294 296 291 289 289 287 286 284 281 279 278 277 277 276
124 112 103 82 62 47 39 36 35 42 80 119 131 131 130 120 89 27 348 307 269 249 251 260 269 278 288 308 322 320 321 324 322 323 325 327 331 332 331 329 326 319 309 307 301 292 286 279 275 274 269 271 274 274 274 270 268 271 272 272 273 275 278 280 283 285 286 287 288 289 288 287 289 294 299 297 294 294 291 289 287 284 280 276 274 274 274 274
91 75 68 65 66 64 64 65 72 87 103 117 123 125 124 100 31 357 345 319 273 248 239 247 268 283 304 319 327 328 329 330 327 329 329 329 330 328 327 323 318 316 313 308 303 298 294 285 279 274 269 272 274 274 274 270 269 271 272 273 276 279 282 283 287 287 288 290 292 295 293 290 295 300 302 301 300 297 293 291 288 284 280 276 273 271 270 270
68 68 71 75 78 76 76 79 87 98 109 119 125 128 119 14 352 349 351 345 313 268 261 287 293 306 319 324 330 331 331 331 328 330 328 325 327 327 323 317 314 316 317 313 308 303 296 287 278 269 267 271 269 269 272 271 272 272 272 276 279 281 281 283 288 289 293 295 296 302 301 302 308 308 308 308 304 300 297 295 290 286 283 279 276 273 271 270
69 74 78 81 82 82 82 86 93 103 117 130 137 141 21 346 352 358 10 12 2 356 341 341 329 323 322 319 328 329 331 334 337 341 338 336 339 338 332 329 329 327 325 321 312 305 294 284 281 278 282 283 276 276 277 278 279 277 278 282 283 284 285 291 296 297 300 300 302 307 304 309 320 319 317 313 307 305 303 299 295 292 288 284 280 277 276 273
77 79 81 81 78 76 74 81 96 111 130 144 159 49 359 5 16 27 41 28 15 16 4 2 341 327 316 327 337 336 343 350 355 360 358 354 350 347 343 340 339 333 329 325 315 305 294 293 298 299 299 295 286 282 284 290 288 283 284 286 285 287 291 298 302 301 303 304 307 308 304 312 326 327 320 312 308 307 304 304 302 299 294 287 283 280 278 276
86 85 84 76 68 61 52 53 63 79 89 88 51 41 39 42 60 68 68 51 41 37 17 11 350 337 338 359 352 351 359 2 359 2 1 357 353 349 344 339 338 334 332 326 314 305 306 313 316 309 305 297 287 286 297 304 301 296 295 293 291 289 292 299 301 301 304 305 307 307 305 314 330 333 323 314 310 307 308 312 307 301 295 290 286 283 281 279
94 92 83 72 63 53 47 44 48 61 72 77 67 61 66 80 96 101 100 87 70 69 42 22 9 19 68 4 3 1 1 1 358 359 1 359 354 348 345 342 341 339 337 327 311 309 315 318 320 319 318 308 302 308 312 313 313 307 300 299 297 292 292 298 302 303 304 305 306 306 306 315 331 334 326 315 305 306 315 318 309 300 298 295 294 292 291 288
102 95 80 66 57 51 50 48 52 63 71 79 80 76 81 100 117 117 110 91 68 64 49 23 17 33 29 4 8 3 357 359 0 4 4 0 357 353 353 352 352 352 346 331 310 302 307 318 335 340 334 327 326 327 321 315 317 313 303 301 301 298 299 303 308 308 306 308 310 311 312 318 328 331 327 312 300 306 321 319 310 308 305 304 303 304 303 301
104 96 82 66 56 54 52 49 55 62 68 79 86 89 91 106 116 99 86 80 62 51 37 21 18 28 18 6 9 4 2 8 9 10 6 1 5 9 10 8 9 8 352 341 340 336 338 352 358 353 347 344 341 338 333 326 324 321 315 312 310 311 318 321 317 311 311 314 317 321 318 318 326 328 321 305 295 310 328 320 315 311 307 306 304 305 305 306
111 94 80 64 56 52 47 47 51 53 61 71 76 91 87 91 112 88 76 80 66 52 37 24 22 25 17 12 14 12 14 21 20 18 16 15 21 22 24 22 21 19 4 9 21 15 12 9 2 359 357 355 351 349 347 339 334 332 326 323 319 320 332 334 317 311 314 318 322 327 320 319 328 329 319 304 298 317 330 325 321 311 302 301 299 300 301 303
126 96 69 55 50 46 44 42 40 42 45 61 76 89 74 64 113 104 88 94 81 57 36 26 27 25 22 19 20 22 25 31 35 34 28 28 28 27 30 29 31 32 24 27 31 27 21 11 7 8 5 2 357 352 348 341 336 337 334 333 331 326 331 336 321 317 321 318 322 326 323 328 339 339 333 321 314 319 324 328 324 309 297 293 294 295 296 299
132 122 69 50 46 41 40 38 34 31 17 36 65 83 83 82 115 116 111 111 85 56 37 33 35 32 33 32 27 33 38 39 45 41 32 33 35 34 34 35 40 39 30 32 34 31 24 16 16 14 12 9 360 352 349 345 337 335 335 335 336 331 329 336 331 324 325 320 323 328 328 338 353 349 348 339 327 324 322 327 324 309 296 288 289 292 295 305
137 128 77 51 46 40 39 38 30 13 355 6 29 55 89 100 116 102 106 109 79 50 41 41 41 36 39 39 36 48 49 44 47 40 34 36 39 40 40 42 45 41 37 40 37 31 23 20 21 18 15 13 8 4 354 346 336 330 336 336 336 336 331 330 327 327 329 322 323 328 329 343 358 354 355 345 337 339 330 329 326 310 296 284 283 290 296 306
112 103 78 56 45 38 40 38 28 7 342 342 354 10 33 63 96 81 91 102 70 44 40 43 44 39 40 40 41 53 51 47 47 41 38 40 41 44 45 45 45 42 41 44 42 34 27 25 24 22 22 18 16 15 358 345 337 329 336 339 335 335 329 324 324 328 331 324 325 331 331 348 1 0 3 357 348 346 339 337 333 313 295 285 282 289 295 304
59 74 81 59 38 33 36 32 24 4 336 333 337 330 356 40 74 77 94 102 64 41 38 44 48 42 43 44 43 52 53 48 46 41 39 41 42 44 45 43 41 40 37 37 37 33 30 27 20 18 19 16 12 8 357 348 347 343 339 338 335 332 327 323 321 323 328 327 334 339 334 346 355 0 1 359 360 354 345 340 334 318 300 292 286 287 294 305
60 93 162 80 22 22 26 24 16 352 328 327 318 305 359 36 63 86 104 104 71 50 41 43 45 40 45 49 45 49 52 48 46 42 38 40 41 40 41 38 33 33 30 28 28 25 23 19 14 10 9 8 3 357 354 348 347 344 337 337 335 330 326 321 318 320 322 322 331 337 314 318 340 356 359 355 1 357 347 338 331 321 307 302 296 292 292 301
282 190 218 239 308 357 12 14 4 337 320 317 299 295 10 42 67 99 116 89 56 42 41 45 44 42 50 54 48 47 51 48 45 43 38 39 40 36 37 34 30 28 23 20 22 18 11 7 6 3 358 360 357 350 347 345 343 339 336 336 334 329 326 319 316 315 310 314 324 329 309 291 318 346 357 352 356 355 349 345 336 327 316 307 299 293 292 297
272 240 228 243 271 320 348 353 346 326 318 310 285 311 343 63 73 102 129 100 36 34 45 46 50 51 54 55 50 47 49 44 42 43 38 37 39 36 34 32 32 31 22 17 17 12 0 358 359 355 354 354 350 345 342 342 340 335 332 333 331 327 322 315 311 307 303 312 321 320 326 286 296 336 357 352 349 352 351 350 342 332 324 314 305 299 298 302
279 257 242 248 262 294 324 332 330 320 315 300 279 305 302 79 75 106 113 105 142 96 59 52 57 59 51 52 52 46 43 42 42 41 37 38 36 33 31 29 32 33 25 18 16 11 359 354 351 345 347 345 340 340 338 338 336 331 329 330 329 323 318 312 304 301 296 298 302 309 328 294 298 330 355 354 346 349 348 347 341 331 326 319 314 311 310 310
283 265 252 252 259 284 311 319 319 314 302 286 284 283 262 93 116 133 100 134 185 133 79 68 64 64 56 53 52 45 41 43 41 36 36 37 30 25 26 22 23 26 22 18 11 5 356 349 345 342 342 336 332 334 334 335 331 327 327 328 328 323 317 309 296 297 295 282 281 295 310 285 299 329 349 353 348 347 345 344 340 330 325 320 316 316 316 316
279 272 259 257 267 287 305 311 307 302 284 269 282 261 208 144 114 122 133 166 172 144 107 84 76 77 66 56 55 50 46 42 37 34 29 27 22 16 14 13 13 15 13 11 5 360 353 345 341 343 340 330 325 328 329 329 327 325 326 327 328 323 315 305 288 275 227 275 274 267 300 257 251 313 343 352 349 347 343 341 339 331 325 320 316 315 313 312
266 271 268 269 282 296 304 305 298 290 269 255 264 232 194 171 355 291 164 165 179 168 137 101 91 86 69 61 59 49 46 40 31 28 19 16 13 5 5 6 9 10 1 359 357 352 350 344 337 341 341 331 319 324 325 323 325 322 322 326 330 332 334 308 268 255 238 244 252 243 269 267 265 298 339 349 346 347 341 340 340 332 325 321 317 315 308 303
258 263 272 277 289 299 302 301 293 280 257 253 239 205 194 188 217 178 167 171 200 171 151 121 95 81 69 61 53 38 36 30 21 17 10 5 356 353 358 359 5 9 354 350 349 347 348 346 340 339 338 330 317 320 321 320 323 317 315 324 329 357 18 301 269 284 272 251 248 251 264 279 276 304 336 338 344 350 336 339 343 334 327 323 318 314 305 297
263 267 273 282 293 300 301 296 282 271 251 242 220 196 196 199 193 176 169 172 162 158 155 140 108 81 62 45 40 30 21 18 11 3 357 354 343 346 353 351 354 357 351 349 346 341 338 331 336 337 332 324 317 315 314 317 318 311 310 316 305 290 262 262 253 255 286 291 264 254 261 262 268 312 330 333 352 346 330 337 344 338 334 332 322 313 306 302
268 273 280 289 296 296 294 283 266 263 249 230 216 203 203 204 192 183 175 175 176 174 176 166 149 88 35 21 21 15 7 4 360 353 349 343 334 336 345 346 343 342 347 348 343 337 326 317 328 331 326 322 316 310 311 316 315 306 306 305 296 288 260 254 264 269 284 306 281 246 240 256 276 308 322 329 348 338 331 332 333 336 345 342 325 312 307 304
271 277 284 291 295 289 279 268 258 260 246 226 218 212 213 207 192 189 182 181 189 189 192 192 194 229 316 318 338 356 347 340 343 342 340 334 327 329 338 340 336 332 337 340 339 333 315 316 324 326 325 323 319 314 313 313 307 298 299 298 294 291 276 265 273 279 281 297 284 248 251 275 288 303 309 300 318 329 331 328 327 334 345 330 313 305 300 297
272 279 285 290 291 284 270 260 254 255 242 225 221 218 220 215 203 199 186 180 192 196 204 214 218 220 255 295 323 343 337 335 335 333 333 330 324 327 332 333 331 327 328 331 332 324 308 310 319 323 323 323 321 317 313 311 303 292 290 295 296 291 279 262 269 304 315 271 274 259 268 284 287 296 304 296 304 324 326 320 312 301 314 317 312 307 301 297
274 281 287 289 288 281 269 261 255 248 235 224 222 220 219 215 207 200 190 189 198 196 202 218 228 243 263 292 312 322 325 329 330 330 331 328 321 325 329 329 326 324 325 325 326 323 314 309 315 319 318 319 319 314 312 311 303 292 291 291 288 278 269 248 240 299 311 279 285 282 284 287 284 295 305 297 305 321 317 290 279 305 315 317 313 309 305 302
275 281 285 287 283 275 267 261 253 240 227 221 220 219 214 207 200 197 197 204 210 211 220 228 239 257 268 295 309 313 317 320 323 325 325 322 318 321 324 323 321 321 322 322 320 320 317 304 303 313 315 314 315 313 311 309 302 298 296 289 280 270 264 255 239 232 247 271 289 299 301 298 299 306 303 299 311 314 294 273 306 317 319 316 312 309 307 306
273 278 281 282 278 271 263 254 242 228 222 218 215 216 212 206 201 201 205 214 219 226 231 231 251 272 279 294 303 309 314 315 317 318 315 314 317 318 320 318 318 319 318 318 317 316 314 296 288 305 309 308 313 315 308 303 301 298 294 289 282 273 264 263 261 251 247 243 202 303 297 283 295 302 298 302 308 297 263 284 309 316 316 313 312 310 309 309
271 275 277 279 276 269 259 246 232 221 218 214 212 213 212 209 209 208 213 221 227 232 234 242 263 276 281 292 300 308 313 312 314 314 309 312 317 317 316 316 317 317 314 314 314 312 310 296 289 298 303 306 313 313 305 301 300 297 295 292 287 276 262 261 270 260 249 237 236 252 275 282 290 296 298 302 298 270 256 289 307 313 313 311 311 311 311 311
271 274 276 276 272 265 253 238 225 216 212 208 210 214 215 214 214 214 219 226 232 240 249 258 267 273 278 287 294 303 312 310 310 311 309 313 318 316 314 315 315 314 312 311 311 309 306 297 292 297 304 311 314 312 308 304 302 301 301 298 293 280 263 250 250 272 271 258 257 256 265 286 293 297 298 298 280 253 274 300 307 310 309 310 311 310 309 306
273 276 276 273 267 259 246 232 222 216 211 211 215 219 221 219 216 220 226 232 240 248 257 263 269 276 280 287 294 301 309 308 305 308 311 315 318 316 314 313 313 312 311 310 309 308 305 297 294 300 307 312 314 316 317 312 308 308 305 300 295 285 276 267 262 273 280 273 268 257 255 287 296 302 301 289 263 268 293 302 306 308 308 310 310 309 308 304
274 277 275 270 263 253 239 228 220 216 216 219 222 224 225 222 221 227 232 238 247 254 260 267 273 279 285 291 297 302 307 305 302 306 311 314 316 314 312 311 310 309 308 307 306 305 301 292 290 298 311 319 320 324 323 316 314 310 305 301 295 288 286 280 273 272 273 274 274 241 240 286 298 301 292 285 282 290 298 301 305 308 309 310 310 309 308 305
275 276 271 264 258 248 235 224 218 220 223 225 226 225 226 226 227 233 239 244 251 257 265 272 277 282 289 294 297 302 306 304 300 303 310 314 313 311 309 308 306 305 305 304 304 303 298 290 286 283 279 294 303 306 309 310 309 305 303 301 296 292 287 285 283 273 262 273 276 255 257 286 301 302 293 293 294 298 301 302 305 309 309 309 310 309 308 307
273 272 265 258 255 243 230 222 220 225 230 231 231 229 229 233 235 238 245 251 256 262 269 275 281 288 294 296 298 303 307 306 303 304 310 313 311 309 309 307 306 305 306 305 305 304 298 294 295 287 274 277 291 297 300 301 299 300 304 304 299 294 288 285 280 266 265 272 275 277 279 286 297 304 301 300 301 302 304 305 306 307 307 307 308 308 309 309
269 265 258 254 254 242 229 223 223 230 235 236 237 234 233 238 242 245 250 256 262 270 275 278 286 293 296 299 302 305 308 309 306 305 307 308 307 308 307 307 307 307 306 306 305 302 296 297 301 298 293 295 302 305 303 298 296 300 305 309 309 304 293 286 277 275 280 272 271 293 300 291 294 303 303 302 303 303 304 305 305 306 307 308 307 307 307 307
262 259 253 250 250 247 236 228 230 238 242 240 239 238 238 242 248 251 255 261 267 274 280 285 293 296 297 301 304 305 309 311 305 302 304 304 304 304 304 305 305 305 305 304 302 299 294 296 301 302 301 302 306 309 308 303 301 303 306 311 314 311 299 290 287 290 288 269 272 297 304 295 299 307 303 302 304 302 302 304 303 305 308 307 307 307 308 310
260 256 253 250 248 248 244 240 243 248 248 244 243 244 247 249 252 258 263 269 275 280 285 292 298 299 301 303 303 306 311 308 301 300 303 303 303 303 304 304 304 305 305 303 300 298 293 294 301 303 302 306 310 313 313 311 310 311 313 314 314 311 304 296 295 298 289 278 285 297 297 295 303 304 298 300 302 299 299 300 301 306 309 309 310 312 313 315
261 259 256 253 251 248 246 248 256 258 253 250 250 251 252 253 255 262 269 276 285 290 292 297 300 300 302 302 302 307 309 301 298 300 302 302 304 305 304 305 305 305 304 302 300 298 291 292 300 303 302 307 314 317 318 318 315 313 316 317 316 316 315 308 303 301 293 289 292 295 294 295 297 295 297 301 300 298 298 300 304 310 313 315 316 317 317 318
263 263 259 255 252 250 248 249 257 263 258 254 254 254 254 256 261 268 275 281 288 294 298 300 301 300 300 300 303 306 302 298 298 300 301 301 304 304 303 303 304 303 302 302 299 297 293 292 298 302 300 304 314 320 319 317 312 311 313 318 320 320 317 312 306 299 293 293 295 296 295 295 296 298 300 300 298 298 300 304 309 314 316 318 319 319 319 317
262 264 261 255 252 250 249 251 257 262 260 254 255 256 258 263 268 275 281 285 289 296 299 300 300 299 299 301 303 302 299 299 300 300 300 301 302 302 301 301 301 299 298 298 295 295 295 293 297 300 296 301 311 317 316 315 313 310 311 315 318 316 313 309 303 295 294 298 300 300 298 298 300 300 299 298 298 300 304 309 315 318 319 320 320 318 316 312
Height
3141 3142 3143 3145 3146 3147 3148 3149 3149 3150 3151 3151 3152 3153 3154 3154 3155 3155 3155 3155 3155 3155 3155 3154 3154 3154 3154 3154 3153 3153 3153 3153 3153 3152 3152 3151 3151 3150 3150 3149 3149 3148 3147 3147 3147 3146 3146 3146 3146 3145 3145 3145 3145 3145 3145 3145 3145 3144 3144 3143 3143 3143 3143 3143 3143 3142 3142 3142 3143 3143 3143 3143 3143 3142 3142 3141 3140 3140 3139 3139 3138 3138 3138 3137 3136 3135 3135 3134
3142 3143 3144 3145 3146 3147 3149 3150 3150 3151 3151 3152 3153 3153 3154 3154 3155 3155 3155 3154 3154 3154 3154 3153 3153 3153 3153 3153 3152 3152 3152 3152 3152 3151 3151 3150 3149 3149 3148 3148 3147 3147 3146 3146 3146 3145 3145 3144 3144 3145 3144 3144 3144 3144 3144 3143 3143 3143 3143 3142 3142 3142 3142 3142 3142 3141 3141 3141 3142 3142 3142 3141 3141 3140 3140 3139 3138 3137 3137 3137 3136 3136 3135 3135 3134 3133 3132 3132
3144 3143 3145 3146 3147 3148 3149 3150 3151 3152 3152 3153 3153 3153 3154 3154 3154 3154 3154 3154 3153 3153 3153 3152 3152 3152 3152 3151 3151 3151 3151 3151 3150 3150 3150 3149 3148 3148 3148 3147 3147 3146 3146 3145 3145 3144 3144 3143 3143 3144 3143 3143 3143 3143 3143 3142 3142 3142 3142 3141 3141 3141 3141 3141 3141 3140 3140 3140 3140 3140 3140 3139 3138 3138 3137 3136 3136 3135 3135 3135 3134 3134 3133 3132 3132 3131 3130 3129
3146 3145 3146 3147 3148 3149 3151 3151 3152 3152 3153 3153 3153 3154 3154 3154 3154 3153 3153 3153 3152 3152 3152 3151 3151 3151 3151 3150 3150 3150 3150 3150 3150 3149 3149 3148 3148 3147 3147 3146 3146 3145 3145 3144 3144 3143 3143 3142 3142 3142 3143 3142 3142 3142 3142 3142 3141 3141 3140 3140 3140 3140 3140 3140 3140 3140 3139 3139 3138 3138 3138 3137 3136 3135 3134 3134 3133 3132 3133 3133 3132 3132 3131 3130 3129 3128 3128 3127
3147 3147 3147 3149 3149 3150 3151 3152 3152 3153 3153 3153 3153 3153 3153 3153 3153 3153 3152 3151 3151 3151 3151 3151 3151 3150 3150 3150 3150 3149 3149 3149 3149 3148 3148 3147 3147 3146 3145 3145 3144 3144 3144 3143 3143 3142 3142 3141 3141 3141 3141 3141 3141 3141 3141 3141 3141 3140 3139 3139 3139 3139 3139 3139 3139 3138 3138 3137 3137 3136 3136 3135 3134 3132 3131 3131 3130 3130 3130 3130 3129 3129 3128 3128 3127 3126 3125 3125
3147 3148 3149 3150 3150 3151 3152 3152 3153 3153 3153 3153 3153 3153 3152 3152 3152 3151 3151 3151 3150 3150 3150 3150 3150 3150 3150 3150 3149 3149 3149 3148 3148 3147 3147 3146 3146 3145 3144 3144 3143 3143 3143 3142 3142 3141 3141 3141 3140 3140 3140 3140 3139 3139 3140 3139 3139 3138 3138 3138 3138 3138 3138 3138 3137 3137 3137 3136 3135 3134 3133 3133 3132 3130 3129 3127 3127 3127 3127 3127 3126 3126 3125 3125 3124 3123 3122 3122
3148 3149 3150 3150 3151 3152 3152 3152 3152 3152 3152 3152 3152 3152 3151 3151 3151 3150 3150 3150 3150 3150 3150 3150 3150 3150 3149 3149 3149 3149 3148 3148 3147 3147 3146 3146 3145 3144 3143 3142 3142 3142 3141 3141 3140 3140 3140 3139 3139 3139 3139 3139 3138 3138 3138 3138 3137 3137 3137 3137 3137 3137 3137 3137 3136 3136 3135 3134 3133 3132 3131 3131 3129 3128 3126 3125 3125 3124 3123 3123 3123 3122 3122 3121 3120 3120 3119 3119
3149 3150 3150 3151 3151 3151 3151 3152 3151 3151 3151 3151 3151 3150 3150 3150 3150 3150 3150 3150 3150 3150 3150 3149 3149 3149 3149 3149 3149 3148 3148 3147 3146 3146 3145 3144 3144 3143 3142 3141 3141 3141 3140 3140 3139 3139 3138 3138 3138 3138 3138 3138 3137 3138 3137 3137 3136 3136 3136 3136 3136 3136 3136 3135 3135 3134 3133 3132 3131 3129 3129 3128 3127 3125 3123 3124 3123 3121 3120 3119 3119 3118 3118 3117 3117 3116 3116 3116
3150 3150 3151 3151 3151 3151 3151 3151 3151 3150 3150 3150 3149 3149 3149 3149 3149 3149 3149 3149 3149 3149 3149 3149 3149 3149 3149 3149 3148 3148 3147 3146 3145 3145 3144 3143 3143 3142 3141 3140 3140 3140 3139 3139 3138 3138 3138 3137 3137 3137 3137 3137 3136 3137 3136 3136 3136 3135 3135 3135 3135 3134 3134 3134 3133 3132 3131 3130 3128 3127 3126 3125 3124 3121 3121 3122 3120 3118 3117 3116 3116 3116 3115 3114 3114 3113 3112 3112
3150 3150 3151 3151 3151 3151 3150 3150 3149 3149 3149 3148 3148 3148 3148 3149 3149 3149 3149 3149 3149 3149 3149 3149 3149 3149 3148 3148 3147 3147 3146 3145 3145 3144 3143 3142 3142 3141 3140 3140 3139 3139 3138 3138 3138 3137 3137 3136 3136 3136 3136 3136 3135 3135 3135 3135 3135 3134 3134 3134 3133 3133 3132 3131 3131 3130 3129 3127 3126 3124 3123 3122 3121 3119 3119 3119 3117 3116 3114 3113 3113 3112 3112 3111 3111 3110 3109 3109
3150 3150 3150 3150 3150 3150 3149 3149 3148 3148 3148 3148 3148 3148 3149 3149 3149 3149 3148 3148 3148 3148 3148 3148 3148 3148 3148 3147 3146 3146 3145 3145 3144 3143 3142 3142 3141 3140 3139 3139 3138 3138 3138 3137 3137 3136 3136 3136 3136 3135 3135 3135 3135 3134 3134 3134 3133 3133 3133 3132 3131 3131 3130 3129 3129 3128 3126 3125 3124 3122 3121 3120 3119 3117 3117 3116 3115 3113 3112 3110 3109 3109 3109 3108 3108 3107 3107 3106
3150 3150 3150 3149 3149 3149 3149 3148 3148 3148 3148 3148 3148 3148 3149 3149 3149 3148 3148 3148 3147 3147 3148 3148 3148 3147 3147 3146 3146 3145 3145 3144 3143 3142 3141 3141 3140 3139 3139 3138 3138 3138 3137 3137 3136 3136 3135 3135 3135 3134 3134 3134 3134 3133 3133 3132 3132 3132 3131 3130 3129 3129 3129 3127 3127 3126 3125 3124 3122 3120 3118 3117 3118 3116 3114 3113 3112 3110 3109 3108 3106 3105 3105 3105 3104 3104 3104 3103
3149 3149 3149 3149 3149 3149 3149 3149 3149 3148 3148 3148 3148 3149 3149 3148 3148 3148 3147 3147 3147 3147 3147 3147 3147 3147 3147 3146 3145 3145 3144 3143 3143 3142 3141 3140 3140 3139 3139 3138 3138 3137 3136 3136 3135 3135 3134 3134 3134 3133 3133 3133 3133 3132 3132 3131 3131 3130 3129 3128 3128 3127 3127 3126 3125 3124 3123 3122 3121 3119 3115 3113 3115 3114 3112 3110 3108 3107 3106 3105 3104 3102 3102 3101 3100 3100 3100 3100
3149 3149 3149 3149 3149 3149 3149 3149 3149 3149 3149 3149 3149 3149 3148 3148 3147 3147 3147 3147 3147 3147 3147 3147 3147 3146 3146 3146 3145 3145 3144 3143 3142 3141 3141 3140 3139 3139 3138 3138 3137 3136 3136 3135 3134 3134 3134 3133 3133 3132 3132 3132 3132 3131 3131 3130 3129 3129 3128 3127 3126 3125 3125 3124 3124 3122 3122 3121 3119 3119 3114 3109 3111 3111 3109 3107 3105 3103 3102 3101 3100 3099 3098 3097 3097 3096 3096 3096
3149 3149 3149 3149 3150 3150 3149 3149 3149 3149 3149 3149 3148 3148 3148 3147 3147 3147 3147 3147 3147 3147 3147 3147 3146 3146 3146 3145 3145 3144 3143 3142 3141 3141 3140 3139 3139 3138 3137 3137 3136 3135 3135 3135 3134 3133 3133 3133 3132 3132 3131 3131 3131 3130 3130 3129 3128 3127 3127 3126 3125 3124 3123 3123 3122 3121 3120 3119 3117 3117 3112 3107 3108 3108 3107 3105 3102 3101 3099 3098 3097 3096 3095 3094 3093 3093 3092 3092
3149 3150 3150 3150 3150 3149 3149 3149 3148 3148 3148 3148 3148 3148 3147 3147 3147 3147 3146 3146 3146 3146 3146 3146 3146 3146 3145 3145 3144 3143 3143 3142 3141 3140 3139 3139 3138 3138 3137 3136 3136 3135 3135 3134 3133 3133 3132 3132 3132 3131 3131 3130 3130 3129 3129 3128 3127 3126 3126 3125 3124 3123 3122 3122 3121 3120 3118 3118 3116 3115 3111 3107 3106 3106 3105 3102 3100 3098 3097 3096 3095 3094 3093 3092 3091 3090 3090 3089
3150 3150 3150 3150 3150 3149 3149 3148 3148 3148 3148 3148 3147 3147 3147 3147 3147 3147 3147 3146 3146 3146 3146 3146 3146 3145 3145 3145 3144 3143 3142 3141 3140 3140 3139 3139 3138 3137 3137 3136 3135 3135 3134 3134 3133 3132 3132 3132 3131 3131 3130 3130 3129 3128 3128 3127 3126 3126 3125 3124 3123 3122 3121 3121 3120 3119 3117 3116 3114 3113 3110 3107 3105 3105 3103 3101 3098 3097 3095 3095 3094 3092 3091 3090 3090 3089 3088 3087
3150 3150 3150 3150 3149 3149 3149 3148 3148 3148 3147 3147 3147 3147 3147 3147 3147 3147 3147 3146 3146 3146 3146 3146 3145 3145 3145 3144 3143 3142 3142 3141 3140 3139 3139 3138 3138 3137 3136 3136 3135 3134 3134 3134 3133 3133 3132 3131 3131 3130 3129 3129 3128 3127 3127 3126 3126 3125 3124 3123 3122 3121 3120 3119 3118 3117 3116 3114 3112 3111 3108 3105 3104 3103 3102 3100 3097 3095 3094 3093 3092 3091 3090 3089 3088 3087 3086 3086
3150 3150 3150 3150 3149 3149 3148 3148 3148 3148 3147 3147 3147 3147 3147 3147 3147 3146 3146 3146 3146 3146 3146 3145 3145 3144 3144 3143 3143 3142 3141 3140 3140 3139 3138 3138 3137 3137 3136 3135 3135 3134 3134 3134 3133 3132 3131 3130 3130 3130 3129 3128 3127 3127 3126 3125 3125 3124 3123 3122 3121 3120 3119 3119 3117 3116 3114 3113 3111 3110 3107 3103 3102 3101 3100 3098 3095 3094 3093 3092 3091 3090 3089 3088 3087 3086 3085 3084
3150 3150 3150 3150 3149 3148 3148 3148 3148 3147 3147 3147 3147 3147 3147 3147 3146 3146 3146 3146 3146 3146 3146 3145 3145 3144 3143 3143 3142 3141 3141 3140 3139 3139 3138 3138 3137 3136 3136 3135 3135 3134 3134 3133 3132 3132 3131 3130 3130 3129 3128 3128 3127 3126 3125 3124 3124 3123 3122 3121 3121 3119 3118 3118 3117 3114 3113 3111 3109 3109 3105 3102 3100 3098 3096 3095 3093 3093 3092 3090 3090 3089 3088 3087 3086 3085 3084 3083
3150 3150 3150 3149 3148 3147 3147 3147 3148 3148 3147 3147 3147 3147 3146 3146 3146 3146 3146 3146 3146 3146 3145 3145 3144 3144 3143 3142 3142 3141 3141 3140 3139 3139 3138 3137 3137 3136 3136 3135 3135 3134 3133 3133 3132 3131 3131 3130 3129 3129 3128 3127 3126 3126 3125 3124 3123 3123 3122 3121 3120 3119 3118 3117 3116 3114 3113 3110 3108 3107 3104 3100 3098 3096 3094 3093 3092 3091 3090 3089 3088 3087 3086 3085 3084 3084 3083 3082
3150 3150 3149 3148 3147 3147 3147 3148 3148 3148 3147 3147 3147 3147 3146 3146 3146 3146 3146 3146 3146 3146 3145 3145 3144 3143 3143 3142 3142 3141 3141 3140 3140 3139 3138 3138 3137 3136 3136 3135 3135 3134 3133 3133 3132 3131 3131 3130 3129 3129 3128 3127 3126 3126 3125 3124 3123 3123 3122 3121 3120 3119 3117 3116 3116 3114 3113 3110 3106 3105 3102 3098 3097 3095 3093 3092 3091 3091 3089 3088 3086 3085 3084 3083 3083 3082 3081 3081
3150 3150 3149 3148 3147 3147 3148 3148 3148 3147 3147 3147 3146 3146 3146 3146 3146 3146 3146 3146 3146 3145 3145 3144 3144 3143 3143 3142 3142 3142 3141 3140 3140 3139 3139 3138 3137 3137 3136 3135 3135 3134 3133 3133 3132 3131 3131 3130 3130 3129 3128 3127 3127 3126 3125 3124 3124 3123 3122 3121 3120 3119 3117 3115 3114 3113 3112 3109 3106 3105 3102 3098 3096 3094 3092 3091 3090 3089 3088 3086 3085 3083 3082 3081 3081 3081 3080 3079
3150 3149 3149 3148 3148 3148 3148 3148 3148 3147 3147 3146 3146 3146 3146 3146 3146 3145 3145 3145 3145 3145 3145 3144 3144 3143 3143 3142 3142 3141 3141 3141 3140 3139 3139 3138 3137 3137 3136 3135 3135 3134 3134 3133 3132 3132 3131 3130 3130 3129 3129 3128 3127 3126 3125 3125 3124 3123 3121 3120 3119 3118 3117 3115 3113 3111 3111 3109 3106 3104 3100 3097 3094 3092 3091 3090 3089 3088 3087 3085 3084 3082 3080 3080 3079 3079 3078 3077
3149 3149 3148 3148 3148 3148 3148 3148 3147 3147 3146 3146 3146 3146 3146 3146 3145 3145 3145 3145 3145 3145 3145 3144 3144 3143 3143 3143 3142 3141 3141 3141 3140 3139 3139 3138 3138 3137 3136 3136 3135 3134 3134 3133 3133 3132 3131 3131 3130 3129 3128 3128 3127 3126 3125 3124 3123 3122 3121 3120 3119 3117 3116 3114 3112 3110 3109 3107 3105 3103 3101 3097 3093 3091 3090 3089 3088 3087 3085 3084 3083 3081 3080 3079 3078 3077 3077 3076
3149 3148 3149 3149 3149 3149 3148 3147 3147 3146 3146 3146 3146 3146 3146 3145 3145 3145 3145 3145 3145 3145 3145 3144 3144 3144 3143 3143 3142 3141 3141 3141 3140 3140 3139 3138 3138 3137 3136 3136 3135 3135 3134 3133 3133 3132 3131 3131 3130 3129 3128 3127 3126 3125 3125 3124 3122 3121 3120 3119 3118 3116 3115 3113 3112 3110 3108 3106 3105 3104 3103 3098 3092 3089 3089 3087 3087 3086 3084 3083 3081 3080 3079 3077 3077 3076 3075 3074
3149 3148 3149 3149 3149 3148 3148 3147 3147 3146 3146 3146 3146 3145 3145 3145 3145 3145 3145 3145 3145 3145 3145 3144 3144 3144 3143 3143 3142 3141 3141 3141 3140 3140 3139 3139 3138 3137 3137 3136 3135 3134 3134 3133 3132 3132 3131 3131 3130 3129 3128 3127 3126 3125 3124 3123 3122 3120 3119 3118 3117 3115 3114 3112 3110 3109 3108 3106 3104 3103 3102 3099 3092 3088 3087 3086 3085 3084 3082 3081 3080 3078 3077 3076 3075 3075 3074 3073
3148 3148 3148 3148 3148 3148 3147 3147 3146 3146 3146 3146 3145 3145 3145 3145 3145 3144 3145 3145 3145 3146 3145 3144 3144 3144 3143 3143 3142 3141 3141 3141 3140 3140 3140 3139 3138 3138 3137 3136 3135 3135 3134 3133 3132 3132 3131 3130 3129 3129 3128 3127 3126 3125 3124 3122 3121 3120 3118 3117 3116 3114 3112 3110 3109 3108 3107 3105 3104 3102 3101 3100 3093 3086 3085 3085 3083 3082 3080 3079 3078 3077 3076 3075 3074 3073 3072 3071
3148 3148 3148 3148 3148 3148 3147 3147 3146 3146 3145 3145 3145 3145 3145 3145 3144 3145 3145 3145 3145 3145 3145 3144 3144 3143 3143 3143 3142 3142 3141 3141 3141 3140 3140 3139 3138 3138 3137 3137 3136 3135 3134 3133 3132 3132 3131 3130 3129 3128 3127 3126 3125 3124 3123 3122 3120 3119 3118 3116 3114 3113 3111 3109 3108 3106 3106 3105 3103 3101 3101 3100 3092 3084 3084 3083 3081 3080 3079 3078 3077 3076 3074 3073 3072 3071 3070 3069
3147 3147 3147 3147 3147 3147 3147 3146 3146 3145 3145 3145 3144 3144 3144 3144 3144 3145 3145 3145 3145 3145 3145 3144 3144 3143 3143 3143 3142 3142 3142 3141 3141 3140 3140 3139 3139 3138 3137 3137 3136 3135 3134 3133 3132 3131 3130 3130 3129 3128 3127 3126 3124 3123 3122 3121 3119 3118 3116 3115 3113 3111 3109 3108 3106 3105 3106 3103 3101 3100 3100 3101 3094 3083 3082 3083 3080 3079 3078 3076 3076 3075 3073 3072 3071 3070 3069 3067
3147 3147 3147 3147 3146 3146 3146 3146 3145 3144 3144 3144 3144 3144 3144 3144 3144 3144 3145 3145 3145 3144 3144 3144 3144 3144 3143 3143 3142 3142 3142 3141 3141 3140 3140 3139 3139 3138 3138 3137 3136 3135 3134 3133 3132 3131 3130 3129 3128 3127 3126 3125 3124 3122 3121 3120 3118 3117 3115 3113 3112 3110 3108 3106 3105 3105 3104 3101 3099 3099 3098 3100 3096 3083 3080 3082 3080 3079 3077 3075 3074 3073 3072 3071 3069 3069 3067 3066
3146 3146 3146 3146 3146 3146 3145 3145 3144 3144 3144 3144 3144 3144 3144 3144 3144 3144 3144 3144 3144 3144 3144 3144 3144 3144 3143 3143 3143 3142 3142 3142 3141 3141 3140 3139 3139 3138 3138 3137 3135 3134 3133 3132 3132 3131 3130 3128 3127 3126 3125 3124 3123 3122 3120 3119 3117 3116 3114 3113 3111 3110 3108 3106 3104 3104 3102 3098 3098 3098 3098 3097 3091 3082 3079 3080 3079 3078 3077 3074 3072 3071 3070 3069 3068 3067 3065 3064
3145 3145 3145 3145 3145 3145 3145 3144 3144 3143 3143 3143 3143 3144 3144 3144 3144 3143 3144 3144 3143 3143 3144 3144 3143 3143 3143 3143 3143 3142 3142 3141 3141 3141 3140 3139 3139 3138 3138 3137 3135 3134 3133 3132 3131 3129 3128 3127 3126 3125 3124 3123 3122 3121 3119 3118 3116 3114 3113 3112 3111 3111 3111 3108 3105 3103 3099 3097 3096 3097 3098 3093 3084 3081 3080 3079 3078 3077 3075 3073 3071 3070 3068 3067 3066 3065 3064 3062
3145 3145 3145 3145 3144 3144 3144 3143 3143 3143 3143 3143 3143 3143 3143 3143 3143 3143 3143 3143 3143 3143 3143 3143 3143 3143 3143 3143 3142 3142 3142 3141 3141 3140 3140 3139 3138 3138 3137 3136 3135 3134 3133 3132 3130 3129 3127 3126 3125 3124 3123 3122 3121 3120 3118 3117 3115 3113 3111 3111 3111 3111 3112 3108 3104 3100 3096 3095 3095 3095 3094 3087 3080 3079 3079 3078 3077 3075 3073 3072 3070 3068 3067 3066 3065 3063 3062 3060
3144 3144 3144 3144 3143 3143 3143 3142 3142 3142 3142 3142 3143 3143 3143 3142 3142 3143 3143 3143 3143 3143 3143 3143 3143 3143 3143 3142 3142 3142 3141 3141 3140 3140 3139 3138 3138 3137 3136 3135 3134 3134 3133 3131 3130 3129 3127 3125 3124 3123 3122 3120 3119 3118 3117 3115 3114 3112 3110 3110 3109 3109 3109 3106 3103 3099 3097 3096 3093 3090 3085 3079 3076 3077 3077 3077 3075 3073 3072 3069 3068 3067 3066 3064 3063 3061 3059 3056
3143 3143 3143 3143 3142 3142 3142 3141 3141 3142 3142 3142 3142 3142 3142 3142 3142 3142 3142 3142 3143 3143 3143 3143 3142 3142 3142 3142 3142 3142 3141 3141 3140 3139 3138 3138 3137 3136 3135 3134 3133 3133 3132 3131 3130 3129 3127 3124 3122 3121 3120 3119 3118 3116 3115 3114 3112 3111 3109 3108 3107 3106 3106 3104 3101 3098 3099 3096 3088 3082 3078 3074 3073 3074 3074 3075 3072 3070 3070 3066 3064 3064 3062 3061 3060 3058 3055 3052
3142 3142 3142 3142 3141 3141 3141 3140 3141 3141 3141 3141 3141 3141 3141 3141 3142 3142 3142 3142 3142 3142 3142 3142 3142 3142 3142 3141 3141 3141 3140 3140 3139 3138 3138 3137 3136 3135 3134 3133 3132 3132 3131 3130 3128 3128 3126 3122 3120 3120 3118 3117 3116 3114 3113 3112 3111 3109 3108 3107 3106 3105 3104 3103 3101 3098 3098 3095 3085 3077 3074 3073 3073 3071 3070 3071 3069 3067 3066 3063 3061 3060 3058 3057 3056 3054 3052 3049
3141 3141 3141 3140 3140 3140 3140 3139 3140 3140 3140 3140 3140 3140 3141 3141 3141 3141 3141 3142 3142 3141 3141 3141 3141 3141 3141 3141 3140 3140 3140 3139 3138 3138 3137 3135 3134 3134 3133 3132 3131 3130 3129 3128 3127 3126 3124 3120 3117 3117 3117 3115 3114 3112 3110 3109 3108 3107 3106 3105 3105 3104 3102 3102 3102 3097 3095 3093 3084 3075 3071 3071 3070 3068 3067 3068 3066 3064 3062 3060 3058 3056 3055 3054 3052 3050 3048 3045
3140 3140 3140 3139 3139 3139 3139 3139 3139 3139 3139 3139 3139 3139 3140 3140 3140 3140 3141 3141 3141 3141 3141 3140 3140 3140 3140 3140 3139 3139 3139 3138 3137 3136 3135 3134 3133 3132 3132 3131 3130 3129 3127 3126 3125 3123 3123 3119 3115 3113 3114 3113 3112 3110 3108 3106 3106 3105 3104 3103 3103 3102 3101 3100 3099 3096 3094 3093 3086 3077 3070 3067 3067 3066 3065 3065 3063 3061 3059 3057 3055 3053 3051 3049 3047 3045 3043 3041
3139 3139 3139 3138 3138 3138 3138 3137 3137 3138 3138 3138 3138 3139 3139 3139 3139 3140 3140 3140 3140 3140 3140 3140 3140 3140 3139 3139 3138 3138 3137 3137 3136 3135 3134 3133 3132 3131 3130 3129 3128 3127 3126 3124 3123 3121 3120 3118 3113 3110 3111 3111 3109 3108 3106 3103 3103 3102 3101 3100 3100 3100 3099 3098 3095 3093 3093 3092 3089 3083 3071 3062 3064 3066 3064 3063 3061 3058 3056 3053 3051 3050 3047 3045 3043 3041 3040 3038
3138 3138 3138 3137 3137 3137 3137 3136 3136 3137 3137 3137 3137 3138 3138 3138 3139 3139 3139 3139 3139 3139 3139 3139 3139 3139 3138 3138 3137 3136 3136 3135 3135 3134 3132 3132 3131 3130 3129 3128 3126 3125 3124 3122 3121 3120 3118 3116 3111 3107 3107 3106 3106 3106 3103 3101 3101 3100 3099 3098 3097 3097 3097 3096 3093 3089 3089 3088 3086 3084 3071 3058 3061 3065 3062 3061 3059 3055 3053 3050 3048 3047 3044 3042 3041 3039 3037 3034
3137 3137 3137 3136 3136 3136 3136 3135 3135 3136 3136 3136 3136 3137 3137 3137 3138 3138 3138 3138 3138 3138 3138 3138 3138 3138 3137 3136 3136 3135 3135 3133 3132 3132 3131 3130 3129 3128 3127 3126 3124 3123 3122 3120 3118 3117 3116 3113 3109 3104 3102 3103 3103 3102 3100 3099 3098 3098 3097 3096 3095 3095 3094 3095 3092 3087 3086 3084 3081 3082 3071 3055 3056 3062 3060 3059 3057 3053 3050 3048 3045 3044 3041 3039 3037 3035 3032 3029
3136 3136 3136 3135 3135 3135 3135 3134 3135 3135 3135 3135 3136 3136 3136 3136 3137 3137 3137 3137 3137 3137 3137 3137 3137 3136 3136 3135 3134 3134 3133 3132 3130 3130 3129 3128 3127 3126 3125 3124 3122 3121 3119 3117 3116 3115 3114 3111 3107 3101 3098 3098 3098 3098 3097 3096 3096 3095 3095 3094 3093 3092 3091 3091 3089 3086 3084 3079 3077 3080 3071 3054 3052 3058 3057 3056 3054 3051 3048 3045 3042 3040 3037 3036 3033 3030 3027 3024
3135 3135 3134 3134 3134 3134 3133 3133 3134 3134 3134 3134 3134 3135 3135 3135 3136 3136 3136 3136 3136 3136 3136 3136 3135 3135 3134 3134 3133 3132 3132 3131 3128 3127 3127 3126 3125 3124 3123 3122 3120 3119 3117 3115 3114 3112 3111 3109 3106 3102 3098 3095 3094 3094 3093 3092 3092 3091 3091 3091 3090 3089 3089 3087 3086 3085 3082 3075 3073 3076 3068 3054 3052 3056 3056 3054 3052 3049 3046 3042 3038 3036 3033 3031 3028 3025 3022 3019
3134 3133 3133 3133 3133 3133 3132 3133 3133 3133 3133 3133 3133 3134 3134 3134 3135 3135 3135 3135 3135 3135 3135 3134 3134 3133 3133 3132 3131 3131 3130 3129 3127 3125 3125 3124 3123 3122 3120 3119 3118 3116 3115 3113 3111 3110 3107 3105 3104 3103 3101 3099 3095 3093 3092 3090 3089 3088 3087 3088 3087 3086 3086 3084 3083 3084 3079 3071 3070 3069 3060 3052 3053 3055 3054 3052 3048 3044 3041 3038 3035 3032 3029 3026 3023 3020 3017 3014
3132 3132 3132 3132 3132 3132 3131 3132 3132 3132 3132 3133 3132 3133 3133 3133 3133 3134 3134 3134 3134 3133 3133 3133 3133 3132 3131 3131 3130 3129 3128 3127 3126 3123 3122 3122 3120 3119 3117 3116 3115 3113 3112 3110 3109 3107 3104 3100 3100 3099 3098 3097 3095 3093 3092 3090 3087 3085 3084 3083 3083 3083 3082 3081 3081 3078 3073 3070 3065 3060 3055 3051 3050 3052 3050 3046 3043 3039 3036 3033 3030 3028 3025 3022 3018 3015 3012 3009
3131 3131 3131 3131 3131 3131 3131 3131 3131 3131 3131 3131 3131 3132 3132 3132 3132 3132 3132 3132 3132 3132 3132 3131 3131 3130 3129 3129 3128 3127 3126 3125 3123 3121 3120 3119 3117 3116 3114 3113 3111 3110 3109 3107 3106 3105 3101 3097 3096 3095 3092 3092 3091 3089 3089 3088 3084 3081 3080 3078 3078 3078 3077 3076 3074 3070 3069 3069 3060 3053 3053 3051 3047 3048 3047 3042 3038 3035 3032 3029 3026 3023 3020 3017 3013 3010 3007 3004
3130 3130 3130 3130 3130 3130 3130 3130 3130 3130 3130 3130 3130 3131 3131 3131 3131 3131 3131 3131 3131 3131 3130 3130 3130 3129 3127 3127 3126 3124 3124 3122 3120 3119 3118 3116 3115 3113 3111 3110 3109 3107 3106 3105 3103 3102 3099 3094 3093 3091 3088 3087 3087 3085 3084 3083 3080 3078 3076 3074 3073 3073 3072 3070 3067 3065 3066 3064 3055 3049 3051 3048 3045 3045 3042 3038 3035 3032 3028 3026 3022 3019 3016 3012 3008 3005 3001 2998
3129 3129 3129 3129 3129 3129 3129 3129 3129 3129 3129 3129 3129 3130 3130 3130 3130 3130 3130 3129 3129 3129 3129 3128 3128 3127 3125 3125 3123 3122 3121 3119 3117 3116 3114 3113 3111 3110 3108 3106 3105 3103 3102 3101 3099 3098 3096 3092 3090 3088 3084 3083 3084 3082 3080 3079 3076 3073 3072 3070 3069 3068 3066 3064 3062 3062 3061 3057 3051 3049 3048 3044 3043 3042 3038 3035 3033 3028 3025 3022 3018 3015 3011 3006 3002 2999 2995 2992
3128 3128 3128 3128 3128 3128 3128 3128 3128 3128 3128 3128 3128 3128 3128 3128 3128 3128 3128 3128 3127 3127 3127 3126 3125 3124 3123 3122 3121 3120 3119 3117 3115 3113 3111 3110 3108 3106 3104 3102 3101 3100 3098 3097 3095 3094 3093 3090 3088 3086 3082 3079 3080 3079 3076 3075 3073 3069 3067 3066 3065 3064 3063 3061 3059 3058 3057 3052 3050 3048 3044 3041 3041 3038 3034 3032 3028 3024 3021 3017 3013 3010 3005 3000 2997 2994 2990 2987
3127 3127 3127 3127 3127 3127 3127 3127 3127 3127 3127 3127 3127 3127 3127 3127 3127 3127 3127 3126 3126 3125 3125 3124 3123 3122 3121 3119 3118 3117 3116 3114 3112 3110 3109 3107 3105 3103 3101 3099 3098 3096 3095 3094 3092 3091 3090 3087 3085 3085 3080 3076 3076 3076 3074 3072 3070 3066 3064 3063 3063 3061 3060 3058 3056 3055 3052 3049 3046 3044 3041 3038 3036 3033 3030 3027 3023 3019 3015 3012 3008 3005 3000 2996 2992 2988 2984 2980
3126 3126 3126 3125 3125 3126 3126 3126 3126 3126 3126 3126 3126 3126 3125 3125 3125 3125 3125 3125 3124 3123 3123 3121 3120 3119 3118 3117 3115 3114 3112 3111 3109 3107 3106 3104 3102 3100 3099 3097 3095 3094 3092 3091 3089 3087 3087 3085 3083 3083 3079 3074 3073 3074 3071 3069 3066 3063 3061 3061 3059 3058 3056 3054 3052 3051 3049 3047 3043 3040 3038 3034 3031 3028 3024 3020 3017 3014 3010 3007 3004 2999 2994 2991 2987 2983 2979 2975